Location: Jefferson
(30.9666°N, 81.7901°W)
Time: 07:03:30
(UTC+00:00)

ARIANE 6 FM1 Upper Stage - Pass Details

Date: 23 September 2024
Orbit: 563 x 595 km, 62.0° (Epoch: 12 October)

Event Time Altitude Azimuth Distance (km) Brightness Sun altitude
Exits shadow 09:20:55 70° 108° (ESE) 635 2.9 -25.3°
Drops below altitude 10° 09:24:54 10° 145° (SE) 1,920 5.6 -24.4°
Sets 09:27:08 0° 147° (SSE) 2,816 6.5 -24.0°
